Weather History for KADF - May, 2014

Change the Weather History Date:

Wednesday, May 14, 2014

  Actual Average Record
Temperature  
Mean Temperature 54 °F -  
Max Temperature 59 °F - - ()
Min Temperature 47 °F - - ()
Degree Days  
Heating Degree Days 12    
Growing Degree Days 4 (Base 50)    
Moisture  
Dew Point 51 °F    
Average Humidity 88    
Maximum Humidity 100    
Minimum Humidity 60    
Precipitation  
Precipitation 0.64 in - - ()
Sea Level Pressure  
Sea Level Pressure 30.17 in    
Wind  
Wind Speed 7 mph (NNW)    
Max Wind Speed 14 mph    
Max Gust Speed -    
Visibility 7 miles    
Events Rain    
Averages and records for this station are not official NWS values.
T = Trace of Precipitation, MM = Missing Value Source: NWS Daily Summary

Daily Weather History Graph

Daily Weather History Graph

Search for Another Location

Airport or City:

Trip Planner

Search our weather history database for the weather conditions in past years. The results will help you decide how hot, cold, wet, or windy it might be!

Date:

Astronomy

May. 14, 2014 Rise Set
Actual Time 6:11 AM CDT 8:06 PM CDT
Civil Twilight 5:43 AM CDT 8:34 PM CDT
Nautical Twilight 5:10 AM CDT 9:07 PM CDT
Astronomical Twilight 4:34 AM CDT 9:43 PM CDT
Moon 8:13 PM CDT (5/14) 6:08 AM CDT (5/14)
Length of Visible Light 14h 50m
Length of Day
13h 54m
Full, 100% of the Moon is Illuminated
May 14
Full
May 14
Full
May 21
Last Quarter
May 28
New
Jun 5
First Quarter

Hourly Weather History & Observations

Time (CDT) Temp. Dew Point Humidity Pressure Visibility Wind Dir Wind Speed Gust Speed Precip Events Conditions
1:10 AM 57.2 °F 53.6 °F 88% 30.15 in 10.0 mi North 11.5 mph - N/A   Scattered Clouds
1:56 AM 56.8 °F 52.0 °F 84% 30.19 in 10.0 mi Variable 6.9 mph - N/A   Mostly Cloudy
2:20 AM 57.2 °F 51.8 °F 82% 30.14 in 10.0 mi North 6.9 mph - N/A   Overcast
2:56 AM 56.8 °F 50.9 °F 80% 30.16 in 10.0 mi NNE 8.1 mph - N/A   Overcast
3:56 AM 55.9 °F 52.0 °F 87% 30.15 in 6.0 mi North 6.9 mph - 0.00 in Rain Light Rain
4:11 AM 55.4 °F 53.6 °F 94% 30.15 in 4.0 mi WNW 5.8 mph - 0.02 in Rain Light Rain
4:16 AM 55.4 °F 53.6 °F 94% 30.15 in 1.8 mi WNW 9.2 mph - 0.09 in Rain Heavy Rain
4:21 AM 55.4 °F 53.6 °F 94% 30.15 in 1.2 mi NW 6.9 mph - 0.13 in Rain Heavy Rain
4:34 AM 55.4 °F 53.6 °F 94% 30.16 in 1.8 mi WNW 5.8 mph - 0.23 in Rain Heavy Rain
4:56 AM 54.0 °F 52.9 °F 96% 30.18 in 2.0 mi NW 5.8 mph - 0.38 in Rain Rain
5:06 AM 53.6 °F 53.6 °F 100% 30.14 in 4.0 mi NW 6.9 mph - 0.01 in Rain Light Rain
5:15 AM 53.6 °F 53.6 °F 100% 30.14 in 5.0 mi WNW 5.8 mph - 0.02 in Rain Light Rain
6:56 AM 54.0 °F 52.9 °F 96% 30.17 in 10.0 mi NNE 5.8 mph - 0.01 in   Mostly Cloudy
7:32 AM 53.6 °F 51.8 °F 94% 30.13 in 4.0 mi North 5.8 mph - 0.02 in Rain Rain
7:56 AM 54.0 °F 52.0 °F 93% 30.18 in 4.0 mi Variable 5.8 mph - 0.05 in Rain Light Rain
8:04 AM 53.6 °F 51.8 °F 94% 30.13 in 4.0 mi NNW 5.8 mph - 0.01 in Rain Rain
8:18 AM 53.6 °F 53.6 °F 100% 30.13 in 2.0 mi NNW 5.8 mph - 0.04 in Rain Rain
8:30 AM 53.6 °F 51.8 °F 94% 30.14 in 4.0 mi NNW 6.9 mph - 0.05 in Rain Light Rain
8:56 AM 54.0 °F 52.0 °F 93% 30.15 in 3.0 mi North 9.2 mph - 0.08 in Rain Rain
9:56 AM 54.9 °F 52.9 °F 93% 30.19 in 2.5 mi WNW 4.6 mph - 0.06 in Rain Rain
10:14 AM 55.4 °F 53.6 °F 94% 30.15 in 3.0 mi WNW 5.8 mph - 0.03 in Rain Rain
10:21 AM 55.4 °F 53.6 °F 94% 30.15 in 2.5 mi NW 6.9 mph - 0.04 in Rain Rain
10:25 AM 55.4 °F 53.6 °F 94% 30.14 in 3.0 mi NW 5.8 mph - 0.05 in Rain Rain
10:56 AM 54.9 °F 52.9 °F 93% 30.17 in 5.0 mi NNW 6.9 mph - 0.06 in Rain Light Rain
11:32 AM 55.4 °F 53.6 °F 94% 30.13 in 10.0 mi North 8.1 mph - 0.00 in   Overcast
11:56 AM 55.9 °F 52.9 °F 89% 30.18 in 10.0 mi NNW 5.8 mph - 0.00 in   Mostly Cloudy
12:24 PM 57.2 °F 51.8 °F 82% 30.15 in 10.0 mi NNW 6.9 mph - N/A   Mostly Cloudy
12:56 PM 56.8 °F 52.0 °F 84% 30.19 in 10.0 mi Variable 6.9 mph - N/A   Mostly Cloudy
1:19 PM 55.4 °F 51.8 °F 88% 30.15 in 2.0 mi NW 8.1 mph - 0.00 in Rain Light Rain
1:29 PM 55.4 °F 51.8 °F 88% 30.14 in 10.0 mi NNW 6.9 mph - 0.00 in   Mostly Cloudy
1:56 PM 55.9 °F 50.9 °F 83% 30.18 in 6.0 mi NNW 9.2 mph - 0.00 in Rain Light Rain
2:35 PM 57.2 °F 51.8 °F 82% 30.13 in 10.0 mi NNE 10.4 mph - 0.00 in   Mostly Cloudy
3:13 PM 55.4 °F 48.2 °F 77% 30.13 in 10.0 mi NNW 13.8 mph - N/A   Mostly Cloudy
3:56 PM 59.0 °F 47.8 °F 66% 30.17 in 10.0 mi NNW 13.8 mph - N/A   Scattered Clouds
4:56 PM 55.9 °F 47.8 °F 74% 30.19 in 10.0 mi NW 9.2 mph - 0.00 in   Overcast
5:56 PM 56.8 °F 46.9 °F 69% 30.19 in 10.0 mi North 9.2 mph - N/A   Mostly Cloudy
6:56 PM 57.9 °F 43.9 °F 60% 30.21 in 10.0 mi NNW 11.5 mph - N/A   Partly Cloudy
7:56 PM 52.9 °F 46.9 °F 80% 30.23 in 10.0 mi North 3.5 mph - N/A   Clear
8:56 PM 52.9 °F 47.8 °F 83% 30.25 in 10.0 mi North 3.5 mph - N/A   Overcast
9:56 PM 50.9 °F 48.9 °F 93% 30.26 in 10.0 mi Calm Calm - N/A   Clear
10:56 PM 48.9 °F 46.9 °F 93% 30.27 in 10.0 mi Calm Calm - N/A   Clear
11:56 PM 47.8 °F 46.9 °F 97% 30.26 in 10.0 mi Calm Calm - N/A   Clear